Location: ???????
(55.9142°N, 37.8256°E)
Time: 18:37:27
(UTC+00:00)

CZ-2D R/B - Visible Passes

Search period start: 17 July 2024 00:00
Search period end: 27 July 2024 00:00
Orbit: 789 x 844 km, 98.8° (Epoch: 16 July)

Date Brightness Start Highest point End Pass type
(mag) Time Alt. Az. Time Alt. Az. Time Alt. Az.
17 Jul 4.2 22:14:09 10° NE 22:17:34 17° E 22:20:57 10° SE visible
17 Jul 2.2 23:53:08 10° NNE 23:58:23 84° ESE 00:03:37 10° SSW visible
18 Jul 4.5 21:53:32 10° ENE 21:55:26 12° E 21:57:20 10° ESE visible
18 Jul 2.5 23:31:25 10° NNE 23:36:35 60° ESE 23:41:44 10° S visible
19 Jul 3.0 23:09:46 10° NNE 23:14:43 42° E 23:19:39 10° S visible
20 Jul 3.5 22:48:13 10° NNE 22:52:47 30° E 22:57:20 10° SSE visible
21 Jul 4.0 22:26:50 10° NE 22:30:47 21° E 22:34:43 10° SE visible
22 Jul 2.1 00:06:11 10° NNE 00:11:25 80° WNW 00:16:39 10° SSW visible
22 Jul 4.3 22:05:46 10° NE 22:08:42 15° E 22:11:38 10° ESE visible
22 Jul 2.2 23:44:25 10° NNE 23:49:39 74° ESE 23:54:53 10° S visible
23 Jul 2.7 23:22:43 10° NNE 23:27:49 52° E 23:32:55 10° S visible
24 Jul 3.2 23:01:06 10° NNE 23:05:56 36° E 23:10:45 10° SSE visible
25 Jul 3.7 22:39:36 10° NE 22:43:58 26° E 22:48:19 10° SSE visible
26 Jul 2.2 00:19:15 10° NNE 00:24:26 66° WNW 00:29:37 10° SSW visible
26 Jul 4.1 22:18:19 10° NE 22:21:56 19° E 22:25:32 10° SE visible
